This is the latest recevied weather packets stored in our database for station/object IZ2WYA-13. If no packets are shown the sender has not sent any weather packets the latest 10 day(s).
| Time | Temp. | Humidity | Pressure | Rain* | Wind** | Luminosity | Snow |
|---|---|---|---|---|---|---|---|
| 1788441328 | 27.78° C | 37% | 1019.9 hPa | - | - | - | - |
| 1788439527 | 27.22° C | 39% | 1020.4 hPa | - | - | - | - |
| 1788437726 | 26.67° C | 37% | 1020.6 hPa | - | - | - | - |
| 1788435924 | 26.67° C | 40% | 1021 hPa | - | - | - | - |
| 1788434123 | 26.11° C | 40% | 1021.2 hPa | - | - | - | - |
| 1788432322 | 25.56° C | 41% | 1021.6 hPa | - | - | - | - |
| 1788430699 | 25° C | 39% | 1022 hPa | - | - | - | - |
| 1788428898 | 25° C | 41% | 1022.5 hPa | - | - | - | - |
| 1788427097 | 24.44° C | 41% | 1022.6 hPa | - | - | - | - |
| 1788425295 | 23.89° C | 44% | 1023 hPa | - | - | - | - |
| 1788423496 | 23.33° C | 48% | 1023.3 hPa | - | - | - | - |
| 1788421692 | 23.33° C | 48% | 1023.6 hPa | - | - | - | - |
| 1788419913 | 22.78° C | 49% | 1023.7 hPa | - | - | - | - |
| 1788418089 | 22.78° C | 49% | 1023.9 hPa | - | - | - | - |
| 1788416288 | 22.78° C | 49% | 1023.7 hPa | - | - | - | - |
| 1788414487 | 22.22° C | 48% | 1023.5 hPa | - | - | - | - |
| 1788412702 | 22.22° C | 48% | 1023.2 hPa | - | - | - | - |
| 1788410887 | 22.78° C | 47% | 1023 hPa | - | - | - | - |
| 1788409083 | 22.78° C | 46% | 1022.8 hPa | - | - | - | - |
| 1788407282 | 23.33° C | 46% | 1022.6 hPa | - | - | - | - |
| 1788405480 | 23.33° C | 46% | 1022.7 hPa | - | - | - | - |
| 1788403679 | 23.33° C | 46% | 1022.7 hPa | - | - | - | - |
| 1788401878 | 23.33° C | 46% | 1022.6 hPa | - | - | - | - |
| 1788400077 | 23.89° C | 46% | 1022.4 hPa | - | - | - | - |
| 1788398275 | 23.89° C | 47% | 1022.5 hPa | - | - | - | - |
* Rain since midnight (hover to see other rain measurements)
** Current wind speed in m/s (hover to see current wind gust speed)